Terminal Aerodrome Forecast
Issued by NWS Jackson, MS

Home | Current Version | Previous Version | Text Only | Print | Product List | Glossary On
Versions: 1 2 3 4 5 6 7 8 9 10 11 12 13 14 15 16 17 18 19 20 21 22 23 24 25 26 27
000
FTUS44 KJAN 230600 RRA
TAFHBG
TAF
KHBG 230624Z 2306/2406 00000KT 1/2SM FG VV002
      TEMPO 2306/2308 3SM BR VV002
     FM230800 00000KT 3SM BR SKC
      TEMPO 2308/2310 1SM BR
     FM231200 VRB03KT 5SM BR SKC
     FM231500 35005KT P6SM SCT250
     FM231900 34005KT P6SM VCTS SCT050CB BKN250=

USA.gov is the U.S. government's official web portal to all federal, state and local government web resources and services.